This is the latest recevied weather packets stored in our database for station/object K7KRJ-10. If no packets are shown the sender has not sent any weather packets the latest 10 day(s).
| Time | Temp. | Humidity | Pressure | Rain* | Wind** | Luminosity | Snow |
|---|---|---|---|---|---|---|---|
| 1777434867 | 22.78° C | 17% | 1012.3 hPa | 0 mm | - | 0 W/m² | - |
| 1777433966 | 22.78° C | 17% | 1012.1 hPa | 0 mm | - | 0 W/m² | - |
| 1777433067 | 22.78° C | 16% | 1012 hPa | 0 mm | - | 0 W/m² | - |
| 1777432166 | 24.44° C | 15% | 1012 hPa | 0 mm | - | 0 W/m² | - |
| 1777431263 | 25° C | 14% | 1011.8 hPa | 0 mm | - | 0 W/m² | - |
| 1777430363 | 25.56° C | 13% | 1011.7 hPa | 0 mm | - | 0 W/m² | - |
| 1777429461 | 25.56° C | 12% | 1011.5 hPa | 0 mm | - | 0 W/m² | - |
| 1777428562 | 26.11° C | 12% | 1011.2 hPa | 0 mm | - | 5 W/m² | - |
| 1777427661 | 26.67° C | 11% | 1011.2 hPa | 0 mm | - | 20 W/m² | - |
| 1777426758 | 26.67° C | 10% | 1011.2 hPa | 0 mm | - | 39 W/m² | - |
| 1777425857 | 27.22° C | 12% | 1011.4 hPa | 0 mm | - | 63 W/m² | - |
| 1777424957 | 27.22° C | 12% | 1011.4 hPa | 0 mm | - | 101 W/m² | - |
| 1777424054 | 27.78° C | 13% | 1011.4 hPa | 0 mm | - | 134 W/m² | - |
| 1777423155 | 27.78° C | 12% | 1011.2 hPa | 0 mm | - | 141 W/m² | - |
| 1777422253 | 27.78° C | 11% | 1011.4 hPa | 0 mm | - | 210 W/m² | - |
| 1777421348 | 28.33° C | 11% | 1011.4 hPa | 0 mm | - | 286 W/m² | - |
| 1777420444 | 28.33° C | 11% | 1011.2 hPa | 0 mm | - | 352 W/m² | - |
| 1777419540 | 28.89° C | 13% | 1011.2 hPa | 0 mm | - | 367 W/m² | - |
| 1777418637 | 28.33° C | 12% | 1011.4 hPa | 0 mm | - | 454 W/m² | - |
| 1777417731 | 28.33° C | 11% | 1011.5 hPa | 0 mm | - | 460 W/m² | - |
| 1777416831 | 28.89° C | 12% | 1011.6 hPa | 0 mm | - | 619 W/m² | - |
| 1777415928 | 28.89° C | 13% | 1011.7 hPa | 0 mm | - | 672 W/m² | - |
| 1777415027 | 28.89° C | 14% | 1011.8 hPa | 0 mm | - | 735 W/m² | - |
| 1777414127 | 28.89° C | 13% | 1012.1 hPa | 0 mm | - | 787 W/m² | - |
| 1777413227 | 27.78° C | 14% | 1012.5 hPa | 0 mm | - | 821 W/m² | - |
* Rain latest hour (hover to see other rain measurements)
** Current wind speed in m/s (hover to see current wind gust speed)